When you browse on this site, cookies collect data to enhance your experience and personalize the content and advertising you see.
Visit our Privacy Policy to learn more. By continuing to use the site, you agree to this use of cookies and data.
  • In Schweiz
  • Länderverzeichnis
  • Für 7 Tage
  • Wassertemperatur
  • Wetterkarte
  • Widgets
  • user-avatar
    Anmelden

    Stündliche Wetter Brisbane

    Heute, 21 Februar, Freitag

    Zeit Temperatur Niederschläge Wind Luftdruck Luftfeuchtigkeit
    00:00 +26°C° 0.1 mm 3 m/S 757 mmHg 77%
    01:00 +25°C° 0.1 mm 3 m/S 757 mmHg 77%
    02:00 +25°C° 0.1 mm 2 m/S 757 mmHg 78%
    03:00 +25°C° 0.1 mm 2 m/S 757 mmHg 78%
    04:00 +25°C° 0 mm 1 m/S 757 mmHg 80%
    05:00 +25°C° 0.1 mm 1 m/S 757 mmHg 79%
    06:00 +25°C° 0.1 mm 1 m/S 758 mmHg 77%
    07:00 +26°C° 0.1 mm 1 m/S 758 mmHg 76%
    08:00 +27°C° 0.2 mm 1 m/S 758 mmHg 71%
    09:00 +29°C° 0.2 mm 2 m/S 759 mmHg 65%
    10:00 +30°C° 0 mm 3 m/S 759 mmHg 58%
    11:00 +30°C° 0.3 mm 3 m/S 759 mmHg 57%
    12:00 +30°C° 0.3 mm 3 m/S 758 mmHg 56%
    13:00 +31°C° 0.3 mm 3 m/S 758 mmHg 55%
    14:00 +30°C° 0.3 mm 3 m/S 758 mmHg 58%
    15:00 +30°C° 0.3 mm 4 m/S 758 mmHg 60%
    16:00 +29°C° 0 mm 4 m/S 757 mmHg 62%
    23:00 +26°C° 0.1 mm 2 m/S 759 mmHg 80%

    Morgen, 22 Februar, Samstag

    Zeit Temperatur Niederschläge Wind Luftdruck Luftfeuchtigkeit
    00:00 +25°C° 0 mm 3 m/S 761 mmHg 74%
    01:00 +25°C° 0 mm 2 m/S 761 mmHg 75%
    02:00 +25°C° 0 mm 3 m/S 761 mmHg 75%
    03:00 +24°C° 0 mm 3 m/S 761 mmHg 76%
    04:00 +24°C° 0 mm 3 m/S 761 mmHg 77%
    05:00 +25°C° 0.1 mm 3 m/S 761 mmHg 75%
    06:00 +25°C° 0.1 mm 3 m/S 762 mmHg 74%
    07:00 +26°C° 0.1 mm 3 m/S 763 mmHg 72%
    08:00 +27°C° 0.2 mm 4 m/S 763 mmHg 68%
    09:00 +28°C° 0.2 mm 4 m/S 763 mmHg 64%
    10:00 +29°C° 0.2 mm 5 m/S 763 mmHg 59%
    11:00 +29°C° 0.2 mm 5 m/S 763 mmHg 57%
    12:00 +30°C° 0.2 mm 6 m/S 762 mmHg 55%
    13:00 +30°C° 0.2 mm 6 m/S 762 mmHg 53%
    14:00 +30°C° 0 mm 6 m/S 762 mmHg 53%
    15:00 +29°C° 0 mm 6 m/S 761 mmHg 54%
    16:00 +28°C° 0 mm 6 m/S 761 mmHg 55%
    17:00 +27°C° 0 mm 6 m/S 761 mmHg 59%
    18:00 +26°C° 0 mm 5 m/S 762 mmHg 63%
    19:00 +25°C° 0 mm 5 m/S 762 mmHg 67%
    20:00 +25°C° 0 mm 5 m/S 762 mmHg 68%
    21:00 +25°C° 0 mm 5 m/S 762 mmHg 70%
    22:00 +25°C° 0 mm 5 m/S 763 mmHg 72%
    23:00 +23°C° 0.1 mm 5 m/S 762 mmHg 73%

    übermorgen, 23 Februar, Sonntag

    Zeit Temperatur Niederschläge Wind Luftdruck Luftfeuchtigkeit
    00:00 +23°C° 0.1 mm 5 m/S 762 mmHg 75%
    01:00 +23°C° 0.1 mm 5 m/S 762 mmHg 76%
    02:00 +23°C° 0.1 mm 4 m/S 762 mmHg 77%
    03:00 +22°C° 0.1 mm 4 m/S 762 mmHg 77%
    04:00 +22°C° 0.1 mm 4 m/S 761 mmHg 78%
    05:00 +23°C° 0.1 mm 4 m/S 762 mmHg 77%
    06:00 +23°C° 0.1 mm 4 m/S 762 mmHg 76%
    07:00 +25°C° 0.1 mm 4 m/S 763 mmHg 75%
    08:00 +26°C° 0.2 mm 4 m/S 763 mmHg 71%
    09:00 +27°C° 0.2 mm 4 m/S 763 mmHg 66%
    10:00 +28°C° 0.2 mm 5 m/S 763 mmHg 61%
    11:00 +28°C° 0.1 mm 5 m/S 763 mmHg 61%
    12:00 +28°C° 0.1 mm 5 m/S 762 mmHg 61%
    13:00 +29°C° 0.1 mm 5 m/S 762 mmHg 61%
    14:00 +28°C° 0.1 mm 4 m/S 762 mmHg 64%
    15:00 +27°C° 0.1 mm 4 m/S 761 mmHg 67%
    16:00 +27°C° 0.1 mm 4 m/S 761 mmHg 71%
    17:00 +26°C° 0.3 mm 4 m/S 761 mmHg 73%
    18:00 +26°C° 0.3 mm 4 m/S 762 mmHg 76%
    19:00 +25°C° 0.3 mm 3 m/S 762 mmHg 79%
    20:00 +25°C° 0.6 mm 4 m/S 762 mmHg 80%
    21:00 +25°C° 0.6 mm 4 m/S 762 mmHg 82%
    22:00 +25°C° 0.6 mm 4 m/S 762 mmHg 83%
    23:00 +25°C° 0.4 mm 4 m/S 762 mmHg 84%

    24 Februar, Montag

    Zeit Temperatur Niederschläge Wind Luftdruck Luftfeuchtigkeit
    00:00 +23°C° 0.4 mm 4 m/S 761 mmHg 84%
    01:00 +23°C° 0.4 mm 4 m/S 761 mmHg 84%
    02:00 +24°C° 0.3 mm 3 m/S 761 mmHg 84%
    03:00 +24°C° 0.3 mm 3 m/S 761 mmHg 84%
    04:00 +24°C° 0.3 mm 3 m/S 761 mmHg 84%
    05:00 +24°C° 0.5 mm 3 m/S 761 mmHg 84%
    06:00 +24°C° 0.5 mm 3 m/S 762 mmHg 84%
    07:00 +25°C° 0.5 mm 3 m/S 762 mmHg 84%
    08:00 +26°C° 0.2 mm 3 m/S 762 mmHg 77%
    09:00 +27°C° 0.2 mm 3 m/S 762 mmHg 71%
    10:00 +28°C° 0.2 mm 3 m/S 762 mmHg 64%
    11:00 +29°C° 0 mm 4 m/S 761 mmHg 61%
    12:00 +30°C° 0 mm 4 m/S 761 mmHg 58%
    13:00 +30°C° 0 mm 4 m/S 760 mmHg 55%
    14:00 +30°C° 0.1 mm 4 m/S 760 mmHg 58%
    15:00 +29°C° 0.1 mm 4 m/S 760 mmHg 61%
    16:00 +29°C° 0.1 mm 4 m/S 759 mmHg 64%
    17:00 +28°C° 0.1 mm 4 m/S 759 mmHg 69%
    18:00 +27°C° 0.1 mm 4 m/S 760 mmHg 74%
    19:00 +26°C° 0.1 mm 3 m/S 760 mmHg 78%
    20:00 +25°C° 0 mm 3 m/S 760 mmHg 80%
    21:00 +25°C° 0 mm 3 m/S 761 mmHg 81%
    22:00 +24°C° 0 mm 3 m/S 761 mmHg 82%
    23:00 +24°C° 0.1 mm 3 m/S 760 mmHg 83%

    25 Februar, Dienstag

    Zeit Temperatur Niederschläge Wind Luftdruck Luftfeuchtigkeit
    00:00 +24°C° 0.1 mm 3 m/S 760 mmHg 84%
    01:00 +22°C° 0.1 mm 3 m/S 759 mmHg 85%
    02:00 +22°C° 0.2 mm 3 m/S 759 mmHg 85%
    03:00 +22°C° 0.2 mm 3 m/S 759 mmHg 85%
    04:00 +22°C° 0.2 mm 3 m/S 759 mmHg 85%
    05:00 +22°C° 0.4 mm 3 m/S 759 mmHg 84%
    06:00 +24°C° 0.4 mm 3 m/S 759 mmHg 82%
    07:00 +24°C° 0.4 mm 3 m/S 759 mmHg 81%
    08:00 +25°C° 0.5 mm 3 m/S 759 mmHg 76%
    09:00 +27°C° 0.5 mm 4 m/S 759 mmHg 72%
    10:00 +28°C° 0.5 mm 4 m/S 759 mmHg 67%
    11:00 +29°C° 0.3 mm 4 m/S 759 mmHg 66%
    12:00 +29°C° 0.3 mm 4 m/S 758 mmHg 64%
    13:00 +30°C° 0.3 mm 4 m/S 758 mmHg 62%
    14:00 +30°C° 0.5 mm 4 m/S 757 mmHg 64%
    15:00 +29°C° 0.5 mm 4 m/S 757 mmHg 65%
    16:00 +29°C° 0.5 mm 5 m/S 756 mmHg 67%
    17:00 +28°C° 0.2 mm 4 m/S 757 mmHg 71%
    18:00 +27°C° 0.2 mm 3 m/S 757 mmHg 75%
    19:00 +26°C° 0.2 mm 3 m/S 757 mmHg 80%
    20:00 +26°C° 0.4 mm 3 m/S 758 mmHg 82%
    21:00 +26°C° 0.4 mm 2 m/S 758 mmHg 84%
    22:00 +25°C° 0.4 mm 2 m/S 758 mmHg 85%
    23:00 +25°C° 0.2 mm 2 m/S 758 mmHg 86%

    26 Februar, Mittwoch

    Zeit Temperatur Niederschläge Wind Luftdruck Luftfeuchtigkeit
    00:00 +25°C° 0.2 mm 2 m/S 757 mmHg 87%
    01:00 +24°C° 0.2 mm 1 m/S 757 mmHg 88%
    02:00 +24°C° 0 mm 1 m/S 757 mmHg 89%
    03:00 +24°C° 0 mm 2 m/S 756 mmHg 89%
    04:00 +24°C° 0 mm 2 m/S 756 mmHg 90%
    05:00 +24°C° 0 mm 2 m/S 756 mmHg 88%
    06:00 +24°C° 0 mm 2 m/S 757 mmHg 86%
    07:00 +25°C° 0 mm 2 m/S 757 mmHg 84%
    08:00 +27°C° 0 mm 2 m/S 757 mmHg 75%
    09:00 +29°C° 0 mm 2 m/S 756 mmHg 65%
    10:00 +32°C° 0 mm 2 m/S 756 mmHg 56%
    11:00 +34°C° 0.1 mm 2 m/S 756 mmHg 53%
    12:00 +34°C° 0.1 mm 2 m/S 755 mmHg 51%
    13:00 +35°C° 0.1 mm 2 m/S 755 mmHg 48%
    14:00 +35°C° 0.2 mm 2 m/S 754 mmHg 50%
    15:00 +34°C° 0.2 mm 3 m/S 754 mmHg 53%
    16:00 +33°C° 0.2 mm 3 m/S 753 mmHg 56%
    17:00 +31°C° 0.1 mm 2 m/S 754 mmHg 62%
    18:00 +29°C° 0.1 mm 2 m/S 754 mmHg 69%
    19:00 +27°C° 0.1 mm 2 m/S 755 mmHg 75%
    20:00 +27°C° 0.1 mm 1 m/S 755 mmHg 77%
    21:00 +27°C° 0.1 mm 1 m/S 756 mmHg 79%
    22:00 +26°C° 0.1 mm 1 m/S 756 mmHg 81%
    23:00 +26°C° 0.1 mm 1 m/S 756 mmHg 82%
    Mehr zeigen